Wind_Speed
12 11 12 12 13 13 15 15 15 15 15 14 14 14 13 13 11 10 9 8 8 7 7 7 6 4 3 2 2 1 1 1 1 2 2 2 2 2 3 3 2 3 5 5 5 5 6 6 7
12 12 11 11 12 13 15 15 15 15 14 14 13 13 13 13 11 10 9 9 8 7 7 7 7 6 5 3 2 2 2 1 1 2 2 2 2 2 3 3 3 3 4 4 5 5 5 6 7
11 11 11 11 13 14 14 14 15 16 15 15 14 13 13 13 11 10 10 9 8 8 8 7 7 6 5 3 3 3 3 2 2 2 2 2 2 2 3 3 3 3 3 3 4 5 5 5 6
10 10 11 11 13 13 13 13 15 16 16 15 14 14 13 12 11 11 11 10 9 9 9 8 7 6 5 4 4 4 4 3 2 2 2 2 2 3 3 4 3 3 3 4 5 6 6 6 7
9 10 11 12 12 13 13 14 15 16 15 15 14 14 13 12 12 12 12 11 10 10 9 9 8 6 5 5 5 5 5 5 4 3 2 2 1 2 2 3 3 3 4 5 6 6 6 7 7
9 9 11 12 13 13 13 14 15 15 14 14 14 13 13 12 13 13 12 12 11 11 10 10 10 8 7 6 6 5 5 5 4 3 3 2 1 1 1 2 2 3 4 4 5 5 6 7 7
9 10 11 12 12 14 15 15 15 14 14 14 14 14 13 12 12 12 12 12 12 12 11 11 10 9 8 7 6 5 5 5 4 3 3 3 2 1 1 1 2 3 4 4 5 5 6 7 7
9 10 11 11 11 12 14 15 15 14 14 13 14 14 13 12 13 12 12 11 12 12 12 11 10 10 9 7 6 5 5 5 4 4 4 3 2 1 0 1 2 3 3 4 5 5 6 6 7
8 8 9 9 10 11 12 13 14 14 14 13 14 13 13 13 13 13 12 11 12 12 11 11 10 10 10 8 6 6 6 5 5 5 4 3 2 2 1 1 2 3 3 3 4 5 5 6 6
5 6 7 8 9 10 11 12 13 14 14 14 13 12 13 13 13 13 13 12 12 11 11 11 11 10 10 8 7 6 7 6 5 5 4 4 3 2 2 2 3 4 3 3 4 4 5 5 6
4 5 6 7 8 9 10 12 12 13 12 13 13 12 13 13 13 12 13 13 13 12 11 11 11 11 10 9 8 7 7 7 6 5 4 3 3 2 3 3 3 3 3 3 3 4 5 5 6
3 3 4 6 7 8 10 11 12 12 12 12 13 12 12 13 12 12 12 12 12 11 11 10 10 9 9 9 8 7 7 6 6 5 4 4 4 3 3 3 3 3 3 3 3 4 4 5 6
3 2 2 4 5 6 8 10 11 11 11 11 12 12 12 13 12 12 12 12 12 12 11 11 9 8 8 8 8 7 7 7 7 6 5 4 4 4 4 3 3 3 3 3 4 4 4 4 5
2 2 1 3 4 6 8 9 10 10 10 10 11 11 11 12 12 11 11 11 12 12 11 10 10 9 9 8 8 7 7 7 6 5 5 4 4 4 5 4 4 4 4 4 4 4 3 4 5
4 2 1 2 3 5 8 9 10 9 9 9 9 10 10 10 11 11 11 11 11 11 11 10 9 8 8 7 7 6 6 5 5 5 4 4 5 5 4 4 4 4 5 5 5 5 4 4 5
5 5 4 4 5 6 7 8 9 9 9 8 9 10 9 8 9 10 10 11 11 11 11 10 10 9 8 8 7 7 6 5 5 5 5 5 5 5 4 4 4 5 6 6 6 6 5 5 5
6 6 5 5 6 6 7 7 7 8 9 8 9 10 10 8 8 8 9 9 9 10 10 10 10 9 8 7 7 7 6 6 5 5 5 5 5 5 5 5 5 5 6 7 7 6 6 6 6
8 8 7 7 7 7 7 6 6 7 8 8 9 9 9 8 8 7 8 8 8 9 9 9 9 8 8 7 7 6 6 6 6 6 5 5 6 6 6 6 6 7 7 7 7 7 7 7 8
9 9 8 7 8 7 6 6 6 8 8 8 9 9 8 8 8 7 7 7 7 7 7 8 7 7 7 7 6 6 6 6 6 6 6 6 6 6 7 7 7 7 7 7 8 8 8 8 8
11 10 9 8 8 8 7 8 7 8 8 8 8 8 8 8 8 6 6 6 7 7 6 7 7 6 7 6 6 6 6 6 7 7 7 7 7 7 7 8 8 8 8 8 8 9 9 10 10
12 11 10 10 10 10 9 8 8 8 7 7 8 8 8 8 8 7 7 6 6 7 6 6 7 6 6 6 6 7 7 7 7 7 6 7 8 8 7 8 8 9 9 10 10 11 11 11 11
13 12 12 11 10 10 10 9 9 8 8 7 7 8 9 9 9 7 7 7 6 6 6 6 7 6 7 8 8 7 8 8 8 8 8 8 9 9 9 9 10 11 11 12 12 13 13 13 13
13 13 13 12 11 11 10 10 8 9 8 8 8 8 9 9 8 7 7 7 6 5 6 6 6 7 8 8 8 8 9 9 9 10 10 10 10 10 11 11 12 13 14 14 14 14 15 15 15
14 14 13 13 12 11 10 10 8 8 9 10 10 9 9 8 8 7 7 8 7 6 6 6 6 7 7 7 8 9 9 10 10 11 11 11 11 12 12 13 14 14 15 16 16 16 17 17 18
15 15 14 14 13 12 12 12 10 10 10 11 10 10 9 8 8 8 7 8 7 6 6 6 7 8 8 8 9 9 10 11 12 12 12 12 12 13 13 14 14 15 16 16 17 18 18 19 19
16 15 16 15 14 13 13 13 11 10 11 11 10 10 9 9 9 9 8 8 7 7 6 6 7 7 8 9 10 10 11 12 12 13 13 13 13 14 14 14 15 16 17 18 18 18 19 20 20
16 16 16 17 16 16 15 14 12 12 12 12 11 11 10 10 10 10 9 8 8 8 8 7 8 8 8 9 10 11 13 13 14 14 14 14 15 16 16 16 17 18 19 19 20 20 20 21 21
19 18 18 19 19 18 16 15 13 13 13 14 13 12 12 12 13 12 11 9 9 9 9 8 9 9 9 10 12 13 14 15 15 15 15 16 17 17 17 18 18 18 19 20 21 22 22 22 22
20 20 20 21 21 20 18 15 14 14 15 15 14 14 13 13 13 13 12 11 10 10 10 9 10 10 11 12 13 14 15 16 16 17 17 18 18 19 19 19 20 20 20 21 22 22 23 23 23
21 21 21 21 21 21 19 16 15 15 15 14 14 14 14 14 13 12 12 11 11 11 11 11 11 13 13 14 15 16 16 16 17 17 18 18 19 19 20 20 21 21 22 22 23 23 23 23 24
Wind_Direction
63 62 63 61 56 55 55 56 56 55 50 45 41 38 34 33 30 29 28 30 28 25 25 28 26 25 31 55 63 62 59 81 115 147 158 168 170 182 190 203 219 236 235 239 249 250 250 250 251
65 63 62 60 55 55 56 53 52 53 49 43 42 39 35 34 31 31 31 32 28 22 21 24 24 24 26 40 54 50 54 77 126 146 167 178 180 191 198 210 216 230 238 241 248 251 252 257 263
68 65 62 60 57 54 53 49 49 48 46 43 42 39 36 34 35 33 33 32 28 22 18 20 20 22 22 36 61 51 44 67 126 156 165 178 187 204 206 218 229 238 241 244 251 252 257 261 266
67 65 59 56 54 56 54 50 50 46 44 41 40 37 34 34 35 35 34 32 30 26 23 23 21 24 27 40 64 64 53 68 103 140 155 152 186 212 217 222 232 244 247 249 257 264 263 261 266
66 63 60 56 56 57 56 54 50 45 41 40 39 38 34 37 36 35 35 34 33 30 29 30 29 40 48 55 67 73 72 74 88 112 115 113 149 193 199 212 234 252 252 258 263 264 266 269 270
58 60 64 61 60 57 55 54 50 44 41 40 40 36 34 36 37 34 35 35 33 33 35 36 45 57 62 66 70 73 73 77 86 90 84 90 105 140 189 218 248 256 259 260 264 264 266 272 271
66 59 63 63 61 57 55 51 48 44 39 39 39 33 32 35 34 31 34 36 32 31 35 37 44 54 61 63 67 72 77 81 82 87 80 79 83 89 243 256 270 266 268 269 271 271 270 272 276
67 61 65 59 56 54 54 50 45 41 38 35 36 35 34 35 31 29 33 36 34 33 35 39 45 54 56 54 63 76 80 83 80 81 78 84 80 69 311 278 278 274 275 281 283 285 284 284 286
71 67 61 58 56 53 52 48 42 39 35 30 32 33 32 35 33 34 36 38 36 36 40 41 46 52 50 53 62 74 79 78 81 79 79 83 64 43 44 5 326 306 298 293 295 294 302 295 290
85 73 56 51 53 50 48 45 39 35 33 28 28 32 33 33 37 39 37 38 35 38 40 41 48 51 53 55 62 76 79 81 81 78 78 72 58 46 28 20 10 2 354 331 315 312 306 299 290
100 79 55 50 50 45 44 42 36 32 30 26 27 33 32 31 35 38 37 35 34 37 41 43 47 50 51 58 66 73 78 81 80 76 69 57 57 51 34 35 27 11 359 347 339 338 321 314 302
109 90 58 50 49 43 40 35 32 27 24 25 28 32 33 29 31 32 34 35 36 38 40 41 45 47 54 57 63 68 74 74 67 60 58 50 48 49 48 44 30 11 9 13 5 348 326 326 318
137 111 69 36 31 31 31 30 29 23 23 26 27 28 30 32 30 30 36 38 40 40 42 46 46 46 52 56 65 71 70 66 60 53 48 44 39 29 30 33 12 14 14 7 359 345 326 320 320
184 140 61 20 12 18 20 20 22 22 18 20 24 24 26 31 34 36 37 35 36 35 37 41 41 43 50 57 67 71 67 63 58 50 41 39 31 29 27 20 15 7 356 345 340 338 339 329 315
212 210 272 330 356 1 11 15 14 14 14 16 20 20 22 30 34 38 38 36 36 34 31 31 32 36 42 47 54 58 58 52 45 34 25 23 24 28 25 18 7 358 346 343 341 336 329 329 315
237 240 261 304 324 337 349 1 4 6 7 9 11 13 15 23 29 33 36 34 33 30 27 26 28 30 34 39 41 43 45 38 31 22 25 22 20 13 13 5 0 351 346 345 340 334 333 328 317
254 260 270 295 309 318 326 340 354 356 360 3 2 8 11 13 20 25 27 25 25 24 23 23 24 31 35 37 37 37 32 26 18 10 14 13 8 3 359 354 349 343 340 341 341 336 329 326 323
251 261 269 288 302 310 320 327 335 338 344 351 356 1 2 360 5 12 17 18 17 17 18 22 23 28 30 32 32 26 18 6 359 0 2 355 350 346 345 342 343 342 340 340 339 334 327 324 321
248 259 271 281 294 305 314 317 325 328 331 339 349 352 350 349 352 360 7 11 8 5 8 13 13 15 20 22 19 11 1 351 350 352 351 346 344 339 334 333 338 339 338 334 331 328 323 319 314
249 256 266 273 287 301 307 315 320 323 322 324 331 337 336 338 342 348 352 358 4 359 357 359 359 4 9 10 4 353 343 345 345 344 343 340 338 336 334 333 334 332 330 328 322 318 316 312 307
250 257 264 268 279 293 299 307 310 314 313 315 322 326 327 327 333 338 342 346 355 355 347 343 341 343 351 352 348 345 340 343 344 346 342 338 337 338 336 332 327 325 323 319 314 312 309 307 304
251 258 265 272 279 292 301 306 306 303 303 306 315 323 325 322 324 330 333 335 342 340 338 334 331 331 334 335 339 339 337 337 343 342 339 333 330 329 328 327 323 318 316 314 311 309 307 305 304
254 259 264 270 276 285 293 301 302 299 302 303 305 312 317 319 319 315 317 323 328 329 326 325 325 326 326 330 332 334 335 338 336 333 327 321 316 317 320 317 315 315 314 312 308 307 305 303 303
253 257 260 266 272 277 285 291 296 297 300 300 300 304 306 308 311 310 306 309 314 316 312 311 316 319 324 327 335 334 334 333 328 324 322 320 318 315 312 311 312 314 313 310 307 305 305 304 303
252 255 258 262 266 275 279 286 294 296 300 300 298 298 298 297 298 299 301 303 308 309 309 308 307 310 313 318 325 327 325 324 322 319 318 316 313 311 309 309 310 312 313 312 309 306 305 305 305
250 253 258 263 269 273 274 284 292 295 298 301 298 291 292 290 289 289 291 299 303 303 303 306 304 305 307 315 322 326 326 326 327 324 318 313 311 310 309 309 310 312 314 312 309 308 307 307 307
249 250 254 262 267 272 272 278 283 289 295 301 300 292 289 292 292 285 286 291 299 298 298 299 303 301 301 311 319 323 323 321 321 320 317 315 312 310 308 307 308 311 311 310 308 307 307 306 304
247 251 254 259 266 270 272 275 283 284 290 298 298 292 289 292 291 285 282 284 294 297 295 296 304 303 300 306 314 319 319 316 315 314 314 313 310 310 310 309 309 310 310 309 308 307 307 306 303
246 251 255 259 263 269 274 277 284 287 292 290 291 291 288 289 288 283 279 281 286 290 292 294 300 305 306 308 310 312 316 315 314 316 314 312 309 308 308 308 308 309 309 309 308 307 305 304 301
250 254 255 257 261 267 274 279 280 284 288 289 289 292 289 287 286 283 283 278 280 285 287 289 300 305 307 307 306 310 311 315 315 314 314 312 311 308 308 308 307 308 308 307 306 306 305 304 302
Height
5883 5883 5882 5883 5882 5880 5878 5878 5876 5874 5873 5873 5871 5870 5869 5869 5869 5869 5866 5863 5862 5861 5860 5859 5858 5857 5856 5856 5856 5856 5856 5856 5856 5857 5858 5860 5861 5862 5863 5864 5865 5866 5866 5867 5868 5869 5869 5870 5870
5884 5884 5885 5884 5883 5881 5880 5878 5877 5876 5875 5874 5873 5871 5870 5869 5868 5867 5865 5864 5863 5862 5860 5859 5857 5856 5856 5855 5855 5855 5855 5855 5855 5856 5857 5859 5860 5861 5862 5863 5864 5865 5866 5866 5867 5868 5868 5869 5869
5886 5886 5886 5885 5883 5882 5882 5880 5878 5877 5876 5875 5874 5873 5871 5870 5869 5867 5866 5864 5863 5862 5860 5858 5857 5856 5855 5855 5854 5854 5854 5853 5853 5855 5856 5858 5859 5860 5861 5862 5863 5864 5865 5865 5866 5866 5867 5868 5868
5888 5888 5888 5887 5884 5884 5882 5881 5880 5878 5877 5876 5875 5874 5872 5871 5869 5868 5866 5865 5863 5862 5860 5858 5856 5854 5854 5854 5854 5854 5853 5851 5851 5853 5855 5857 5859 5860 5860 5862 5863 5863 5864 5864 5865 5865 5866 5866 5866
5889 5889 5889 5887 5885 5885 5883 5882 5881 5880 5878 5877 5876 5875 5873 5872 5870 5869 5867 5865 5864 5862 5860 5857 5854 5852 5853 5853 5853 5853 5853 5852 5851 5853 5855 5857 5858 5859 5860 5861 5862 5862 5863 5863 5863 5864 5864 5865 5865
5891 5890 5889 5888 5887 5886 5885 5883 5882 5881 5880 5879 5878 5876 5874 5873 5871 5869 5868 5866 5864 5862 5860 5858 5855 5854 5854 5854 5854 5854 5853 5853 5854 5855 5856 5857 5857 5858 5859 5860 5860 5861 5861 5862 5862 5862 5862 5863 5863
5892 5891 5890 5889 5888 5888 5887 5885 5884 5883 5882 5881 5879 5878 5876 5874 5872 5870 5868 5866 5865 5863 5861 5859 5857 5856 5855 5855 5854 5854 5854 5855 5855 5856 5856 5857 5857 5858 5859 5859 5860 5860 5860 5860 5860 5861 5861 5861 5861
5893 5893 5891 5891 5890 5889 5888 5887 5886 5885 5883 5882 5881 5879 5877 5875 5873 5871 5869 5867 5865 5864 5862 5861 5859 5857 5856 5855 5855 5855 5855 5855 5856 5856 5857 5857 5858 5858 5859 5859 5859 5859 5859 5859 5859 5859 5859 5859 5859
5894 5895 5893 5892 5891 5890 5889 5889 5888 5886 5885 5884 5882 5880 5878 5876 5874 5872 5870 5868 5867 5865 5863 5862 5860 5859 5857 5856 5855 5855 5856 5856 5856 5856 5857 5857 5858 5858 5858 5858 5858 5858 5858 5858 5858 5858 5857 5857 5857
5895 5895 5894 5893 5892 5891 5890 5890 5889 5888 5886 5885 5883 5881 5879 5877 5875 5872 5871 5870 5868 5866 5864 5863 5861 5860 5859 5857 5857 5856 5857 5857 5857 5857 5858 5858 5858 5858 5858 5858 5858 5858 5857 5857 5857 5857 5856 5856 5855
5895 5895 5895 5894 5893 5892 5891 5891 5890 5889 5887 5886 5884 5882 5880 5878 5876 5874 5873 5871 5869 5867 5866 5864 5863 5861 5860 5859 5858 5858 5858 5859 5859 5858 5859 5859 5858 5858 5858 5858 5858 5858 5857 5857 5856 5856 5855 5855 5854
5896 5896 5895 5895 5894 5893 5893 5892 5891 5890 5889 5887 5885 5883 5881 5880 5878 5876 5874 5872 5871 5869 5868 5866 5864 5863 5862 5861 5860 5860 5860 5860 5860 5860 5859 5859 5859 5858 5858 5858 5858 5858 5857 5856 5856 5855 5855 5854 5853
5896 5896 5895 5895 5895 5894 5894 5893 5892 5890 5889 5887 5886 5884 5882 5881 5879 5877 5875 5874 5872 5870 5869 5867 5866 5864 5863 5862 5862 5862 5861 5861 5861 5860 5860 5860 5859 5859 5858 5858 5858 5858 5857 5856 5855 5855 5854 5853 5852
5896 5896 5896 5896 5896 5895 5894 5894 5893 5891 5890 5888 5887 5885 5883 5881 5880 5878 5877 5875 5873 5872 5871 5869 5867 5866 5865 5864 5863 5863 5862 5862 5862 5861 5861 5860 5860 5859 5859 5858 5858 5857 5857 5856 5855 5854 5853 5852 5852
5896 5896 5896 5896 5896 5895 5895 5894 5893 5891 5890 5889 5887 5886 5884 5882 5881 5879 5878 5876 5875 5873 5872 5870 5868 5867 5866 5865 5864 5864 5863 5863 5862 5862 5861 5860 5859 5859 5859 5859 5858 5857 5857 5856 5855 5854 5853 5852 5851
5895 5896 5896 5896 5895 5895 5896 5895 5893 5892 5891 5889 5888 5887 5885 5883 5882 5881 5879 5878 5876 5874 5873 5871 5869 5868 5867 5866 5865 5865 5864 5863 5863 5862 5861 5860 5860 5859 5859 5858 5858 5857 5856 5855 5854 5853 5852 5851 5850
5895 5895 5895 5896 5895 5894 5894 5894 5893 5892 5891 5889 5888 5887 5885 5884 5883 5881 5880 5879 5877 5876 5874 5873 5871 5869 5868 5867 5866 5866 5865 5864 5863 5863 5862 5861 5860 5859 5859 5858 5857 5857 5856 5855 5854 5853 5852 5851 5850
5895 5895 5895 5895 5894 5893 5893 5893 5892 5891 5890 5889 5888 5887 5886 5884 5883 5881 5880 5879 5878 5876 5875 5873 5872 5870 5869 5868 5867 5867 5866 5865 5864 5863 5862 5861 5860 5859 5858 5857 5856 5856 5855 5854 5853 5852 5851 5850 5849
5893 5894 5894 5894 5893 5893 5892 5892 5892 5891 5890 5889 5888 5887 5886 5884 5883 5881 5880 5879 5878 5877 5875 5874 5873 5871 5870 5869 5868 5867 5866 5864 5863 5862 5862 5861 5860 5859 5858 5857 5856 5855 5854 5853 5852 5850 5849 5848 5847
5892 5893 5893 5893 5892 5892 5891 5891 5891 5890 5889 5888 5887 5886 5885 5884 5883 5881 5880 5878 5877 5876 5875 5874 5873 5872 5870 5869 5868 5866 5865 5863 5863 5862 5861 5860 5859 5858 5857 5856 5855 5854 5853 5851 5850 5849 5848 5846 5845
5890 5891 5891 5891 5891 5890 5890 5890 5890 5889 5888 5887 5886 5885 5884 5883 5882 5881 5879 5878 5877 5876 5875 5874 5873 5872 5870 5869 5867 5866 5865 5863 5862 5861 5859 5859 5858 5857 5856 5855 5854 5853 5851 5850 5849 5847 5846 5844 5843
5888 5889 5889 5889 5889 5888 5889 5888 5888 5887 5887 5886 5885 5884 5883 5882 5881 5880 5879 5877 5876 5875 5874 5873 5872 5871 5869 5868 5866 5865 5864 5863 5862 5860 5859 5858 5857 5855 5854 5853 5852 5851 5849 5848 5846 5845 5843 5841 5840
5886 5887 5887 5887 5887 5887 5886 5886 5888 5886 5885 5885 5884 5883 5882 5881 5880 5879 5878 5876 5875 5874 5873 5872 5871 5870 5869 5867 5866 5864 5863 5862 5861 5859 5858 5857 5855 5854 5852 5851 5850 5848 5847 5845 5843 5842 5840 5838 5836
5884 5884 5884 5884 5885 5885 5885 5885 5886 5885 5884 5883 5882 5881 5880 5879 5878 5877 5876 5875 5874 5872 5871 5871 5869 5869 5867 5866 5865 5864 5862 5861 5859 5858 5856 5855 5853 5852 5850 5848 5847 5845 5844 5842 5840 5838 5836 5834 5833
5881 5882 5882 5882 5882 5883 5883 5883 5884 5883 5882 5881 5880 5879 5878 5877 5876 5875 5875 5874 5872 5871 5870 5869 5868 5867 5866 5865 5863 5862 5860 5859 5857 5855 5854 5852 5851 5849 5847 5846 5844 5842 5840 5838 5836 5834 5832 5830 5829
5878 5879 5880 5880 5880 5881 5881 5881 5883 5881 5880 5879 5877 5876 5876 5874 5874 5873 5872 5872 5871 5870 5868 5867 5866 5865 5864 5863 5861 5860 5858 5857 5855 5853 5851 5850 5848 5846 5844 5843 5841 5839 5837 5834 5832 5830 5828 5826 5824
5874 5875 5877 5877 5877 5878 5878 5879 5880 5879 5877 5876 5875 5874 5873 5872 5871 5871 5870 5869 5868 5867 5866 5865 5864 5863 5862 5861 5859 5857 5856 5854 5852 5850 5849 5847 5845 5843 5841 5839 5837 5835 5833 5830 5828 5826 5824 5822 5820
5871 5872 5873 5873 5874 5874 5875 5876 5877 5876 5875 5874 5872 5872 5871 5869 5868 5867 5867 5866 5866 5865 5864 5863 5862 5860 5859 5858 5856 5854 5853 5851 5849 5847 5846 5843 5841 5839 5837 5835 5833 5831 5828 5826 5824 5821 5819 5817 5814
5868 5869 5869 5869 5870 5871 5871 5875 5873 5872 5871 5870 5870 5868 5868 5866 5865 5864 5863 5863 5863 5862 5862 5861 5860 5858 5857 5855 5854 5852 5850 5848 5846 5844 5842 5840 5837 5835 5833 5831 5828 5826 5824 5821 5819 5816 5814 5811 5809
5863 5864 5865 5866 5867 5867 5868 5872 5870 5869 5868 5867 5866 5865 5864 5863 5862 5861 5860 5859 5859 5859 5859 5858 5857 5856 5854 5853 5851 5849 5847 5845 5843 5841 5838 5836 5833 5831 5829 5826 5824 5822 5819 5816 5814 5811 5808 5806 5803